TimeMDT,TemperatureF,Dew PointF,Humidity,Sea Level PressureIn,VisibilityMPH,Wind Direction,Wind SpeedMPH,Gust SpeedMPH,PrecipitationIn,Events,Conditions,WindDirDegrees,DateUTC
12:53 AM,35.1,14.0,42,29.88,10.0,South,11.5,-,N/A,,Overcast,190,2014-03-20 06:53:00
1:53 AM,33.1,12.9,43,29.85,10.0,South,8.1,-,N/A,,Clear,190,2014-03-20 07:53:00
2:53 AM,33.1,12.9,43,29.83,10.0,South,6.9,-,N/A,,Partly Cloudy,190,2014-03-20 08:53:00
3:53 AM,34.0,12.9,42,29.80,10.0,South,9.2,-,N/A,,Clear,190,2014-03-20 09:53:00
4:53 AM,30.0,14.0,51,29.81,10.0,SSW,10.4,-,N/A,,Clear,200,2014-03-20 10:53:00
5:53 AM,26.1,15.1,63,29.81,10.0,SSW,9.2,-,N/A,,Clear,200,2014-03-20 11:53:00
6:53 AM,28.9,15.1,56,29.81,10.0,South,13.8,-,N/A,,Clear,190,2014-03-20 12:53:00
7:53 AM,28.9,15.1,56,29.85,10.0,SSW,8.1,-,N/A,,Clear,200,2014-03-20 13:53:00
8:33 AM,37.0,15.1,41,29.82,10.0,WNW,16.1,-,N/A,,Clear,290,2014-03-20 14:33:00
8:53 AM,37.9,19.0,47,29.84,10.0,West,16.1,-,N/A,,Scattered Clouds,270,2014-03-20 14:53:00
9:53 AM,37.9,18.0,45,29.88,10.0,WNW,12.7,-,N/A,,Scattered Clouds,290,2014-03-20 15:53:00
10:53 AM,35.1,15.1,44,29.92,10.0,NNW,11.5,-,N/A,,Overcast,340,2014-03-20 16:53:00
11:53 AM,37.0,12.9,37,29.93,10.0,WNW,8.1,-,N/A,,Scattered Clouds,300,2014-03-20 17:53:00
12:53 PM,39.9,10.0,29,29.92,10.0,WSW,17.3,31.1,N/A,,Clear,250,2014-03-20 18:53:00
1:53 PM,42.1,3.0,20,29.92,10.0,West,31.1,38.0,N/A,,Clear,280,2014-03-20 19:53:00
2:53 PM,41.0,-2.9,16,29.94,10.0,WNW,24.2,43.7,N/A,,Clear,290,2014-03-20 20:53:00
3:53 PM,39.9,-2.9,16,29.96,10.0,WNW,26.5,34.5,N/A,,Clear,290,2014-03-20 21:53:00
4:53 PM,39.0,-0.9,19,29.99,10.0,WNW,20.7,29.9,N/A,,Clear,300,2014-03-20 22:53:00
5:53 PM,36.0,3.0,25,30.04,10.0,NNW,21.9,27.6,N/A,,Clear,340,2014-03-20 23:53:00
6:53 PM,33.1,-0.0,24,30.07,10.0,North,18.4,-,N/A,,Clear,350,2014-03-21 00:53:00
7:53 PM,28.0,1.9,33,30.11,10.0,NNW,16.1,-,N/A,,Clear,330,2014-03-21 01:53:00
8:53 PM,25.0,1.9,37,30.11,10.0,NNE,6.9,-,N/A,,Clear,20,2014-03-21 02:53:00
9:53 PM,21.0,3.0,46,30.15,10.0,SW,4.6,-,N/A,,Clear,230,2014-03-21 03:53:00
10:53 PM,26.1,1.0,34,30.16,10.0,Calm,Calm,-,N/A,,Clear,0,2014-03-21 04:53:00
11:53 PM,21.0,3.9,48,30.19,10.0,SSE,6.9,-,N/A,,Clear,160,2014-03-21 05:53:00